TimeCST,TemperatureF,Dew PointF,Humidity,Sea Level PressureIn,VisibilityMPH,Wind Direction,Wind SpeedMPH,Gust SpeedMPH,PrecipitationIn,Events,Conditions,WindDirDegrees,DateUTC
12:15 AM,17.6,6.8,63,30.22,10.0,North,-9999.0,-,N/A,,Clear,0,2013-02-15 06:15:00
12:35 AM,15.8,5.0,62,30.22,10.0,West,9.2,-,N/A,,Clear,260,2013-02-15 06:35:00
12:55 AM,17.6,5.0,58,30.22,10.0,West,8.1,-,N/A,,Clear,270,2013-02-15 06:55:00
1:15 AM,17.6,5.0,58,30.22,10.0,West,9.2,-,N/A,,Clear,260,2013-02-15 07:15:00
1:35 AM,17.6,5.0,58,30.22,10.0,West,11.5,-,N/A,,Clear,260,2013-02-15 07:35:00
1:55 AM,17.6,6.8,63,30.23,10.0,WSW,11.5,-,N/A,,Mostly Cloudy,250,2013-02-15 07:55:00
2:35 AM,19.4,8.6,63,30.23,10.0,West,11.5,-,N/A,,Mostly Cloudy,260,2013-02-15 08:35:00
2:55 AM,19.4,8.6,63,30.23,10.0,West,11.5,-,N/A,,Overcast,270,2013-02-15 08:55:00
3:15 AM,19.4,8.6,63,30.23,10.0,West,9.2,-,N/A,Snow,Light Snow,270,2013-02-15 09:15:00
3:35 AM,19.4,10.4,68,30.23,10.0,West,9.2,-,N/A,Snow,Light Snow,280,2013-02-15 09:35:00
3:55 AM,23.0,10.4,59,30.24,10.0,WNW,13.8,21.9,N/A,Snow,Light Snow,300,2013-02-15 09:55:00
4:15 AM,19.4,12.2,74,30.24,5.0,WNW,13.8,-,0.03,Snow,Light Snow,300,2013-02-15 10:15:00
4:35 AM,19.4,14.0,80,30.24,8.0,WNW,13.8,18.4,0.07,Snow,Light Snow,300,2013-02-15 10:35:00
4:55 AM,19.4,14.0,80,30.24,10.0,WNW,10.4,-,0.07,,Overcast,300,2013-02-15 10:55:00
5:15 AM,19.4,14.0,80,30.24,3.0,WNW,9.2,-,0.02,Snow,Light Snow,290,2013-02-15 11:15:00
5:35 AM,19.4,14.0,80,30.25,5.0,WNW,11.5,16.1,0.05,Snow,Light Snow,290,2013-02-15 11:35:00
5:55 AM,17.6,14.0,86,30.25,5.0,West,11.5,-,0.06,Snow,Light Snow,280,2013-02-15 11:55:00
6:15 AM,19.4,15.8,86,30.25,3.0,WNW,10.4,-,0.02,Snow,Light Snow,290,2013-02-15 12:15:00
6:35 AM,17.6,14.0,86,30.26,2.5,WNW,10.4,-,0.07,Snow,Light Snow,300,2013-02-15 12:35:00
6:55 AM,17.6,15.8,93,30.25,5.0,West,8.1,-,0.10,Snow,Light Snow,280,2013-02-15 12:55:00
7:15 AM,17.6,15.8,93,30.25,5.0,West,9.2,-,0.02,Snow,Light Snow,270,2013-02-15 13:15:00
7:35 AM,17.6,14.0,86,30.25,7.0,West,9.2,-,0.05,Snow,Light Snow,280,2013-02-15 13:35:00
7:55 AM,19.4,14.0,80,30.26,9.0,West,12.7,-,0.05,Snow,Light Snow,270,2013-02-15 13:55:00
8:15 AM,19.4,14.0,80,30.27,10.0,West,10.4,-,N/A,Snow,Light Snow,280,2013-02-15 14:15:00
8:35 AM,19.4,14.0,80,30.27,10.0,West,10.4,-,N/A,,Overcast,270,2013-02-15 14:35:00
8:55 AM,19.4,14.0,80,30.28,10.0,West,10.4,-,N/A,,Scattered Clouds,280,2013-02-15 14:55:00
9:15 AM,19.4,12.2,74,30.28,10.0,West,10.4,-,N/A,,Clear,280,2013-02-15 15:15:00
9:35 AM,21.2,12.2,68,30.29,10.0,WNW,9.2,-,N/A,,Clear,290,2013-02-15 15:35:00
9:55 AM,23.0,10.4,59,30.29,10.0,WNW,11.5,-,N/A,,Partly Cloudy,300,2013-02-15 15:55:00
10:15 AM,23.0,12.2,63,30.30,10.0,NW,12.7,18.4,N/A,,Partly Cloudy,320,2013-02-15 16:15:00
10:35 AM,23.0,12.2,63,30.30,10.0,WNW,10.4,-,N/A,,Partly Cloudy,300,2013-02-15 16:35:00
10:55 AM,24.8,12.2,59,30.30,10.0,WNW,15.0,19.6,N/A,,Partly Cloudy,290,2013-02-15 16:55:00
11:15 AM,24.8,14.0,64,30.30,10.0,WNW,9.2,16.1,N/A,,Partly Cloudy,290,2013-02-15 17:15:00
11:35 AM,24.8,14.0,64,30.30,10.0,NW,13.8,-,N/A,,Partly Cloudy,310,2013-02-15 17:35:00
11:55 AM,26.6,12.2,55,30.30,10.0,WNW,10.4,-,N/A,,Mostly Cloudy,300,2013-02-15 17:55:00
12:15 PM,24.8,10.4,54,30.30,10.0,NW,13.8,-,N/A,,Mostly Cloudy,310,2013-02-15 18:15:00
12:35 PM,26.6,8.6,47,30.29,10.0,NNW,10.4,-,N/A,,Mostly Cloudy,330,2013-02-15 18:35:00
12:55 PM,26.6,8.6,47,30.28,10.0,NW,10.4,-,N/A,,Mostly Cloudy,320,2013-02-15 18:55:00
1:15 PM,26.6,8.6,47,30.28,10.0,WNW,11.5,-,N/A,,Mostly Cloudy,300,2013-02-15 19:15:00
1:35 PM,26.6,8.6,47,30.28,10.0,NNW,11.5,-,N/A,,Mostly Cloudy,330,2013-02-15 19:35:00
1:55 PM,26.6,10.4,51,30.27,10.0,NW,12.7,-,N/A,,Mostly Cloudy,310,2013-02-15 19:55:00
2:15 PM,28.4,10.4,47,30.26,10.0,WNW,12.7,-,N/A,,Mostly Cloudy,290,2013-02-15 20:15:00
2:35 PM,28.4,10.4,47,30.26,10.0,NW,10.4,19.6,N/A,,Scattered Clouds,310,2013-02-15 20:35:00
2:55 PM,28.4,10.4,47,30.25,10.0,NW,12.7,-,N/A,,Partly Cloudy,310,2013-02-15 20:55:00
3:15 PM,28.4,10.4,47,30.24,10.0,NNW,12.7,16.1,N/A,,Partly Cloudy,330,2013-02-15 21:15:00
3:35 PM,28.4,10.4,47,30.24,10.0,NNW,10.4,18.4,N/A,,Scattered Clouds,330,2013-02-15 21:35:00
3:55 PM,30.2,10.4,44,30.24,10.0,West,12.7,-,N/A,,Scattered Clouds,280,2013-02-15 21:55:00
4:15 PM,28.4,8.6,43,30.23,10.0,WNW,6.9,-,N/A,,Partly Cloudy,300,2013-02-15 22:15:00
4:35 PM,28.4,10.4,47,30.23,10.0,WNW,8.1,-,N/A,,Clear,300,2013-02-15 22:35:00
4:55 PM,26.6,10.4,51,30.23,10.0,West,11.5,18.4,N/A,,Clear,260,2013-02-15 22:55:00
5:15 PM,26.6,12.2,55,30.23,10.0,West,8.1,-,N/A,,Mostly Cloudy,270,2013-02-15 23:15:00
5:35 PM,26.6,12.2,55,30.22,10.0,WSW,9.2,-,N/A,,Overcast,250,2013-02-15 23:35:00
5:55 PM,26.6,10.4,51,30.20,10.0,West,3.5,-,N/A,,Overcast,270,2013-02-15 23:55:00
6:15 PM,26.6,10.4,51,30.19,10.0,WNW,4.6,-,N/A,,Overcast,290,2013-02-16 00:15:00
6:35 PM,26.6,12.2,55,30.20,10.0,West,6.9,-,N/A,Thunderstorm,Thunderstorm,280,2013-02-16 00:35:00
6:55 PM,26.6,12.2,55,30.19,10.0,WNW,4.6,-,N/A,,Overcast,290,2013-02-16 00:55:00
7:15 PM,26.6,12.2,55,30.18,10.0,West,6.9,-,N/A,,Overcast,270,2013-02-16 01:15:00
7:35 PM,28.4,14.0,55,30.18,10.0,West,6.9,-,N/A,,Overcast,270,2013-02-16 01:35:00
7:55 PM,28.4,14.0,55,30.17,10.0,West,6.9,-,N/A,,Overcast,270,2013-02-16 01:55:00
8:15 PM,28.4,14.0,55,30.16,10.0,West,5.8,-,N/A,,Overcast,270,2013-02-16 02:15:00
8:35 PM,28.4,14.0,55,30.14,10.0,West,6.9,-,N/A,,Overcast,260,2013-02-16 02:35:00
8:55 PM,28.4,15.8,59,30.13,10.0,West,8.1,-,N/A,,Overcast,280,2013-02-16 02:55:00
9:15 PM,30.2,15.8,55,30.12,10.0,West,6.9,-,N/A,,Mostly Cloudy,270,2013-02-16 03:15:00
9:35 PM,30.2,15.8,55,30.11,10.0,West,9.2,-,N/A,,Mostly Cloudy,270,2013-02-16 03:35:00
9:55 PM,32.0,15.8,51,30.10,10.0,WSW,10.4,-,N/A,,Overcast,250,2013-02-16 03:55:00
10:15 PM,32.0,15.8,51,30.09,10.0,WSW,10.4,-,N/A,,Overcast,250,2013-02-16 04:15:00
10:35 PM,32.0,15.8,51,30.08,10.0,West,10.4,-,N/A,,Overcast,260,2013-02-16 04:35:00
10:55 PM,32.0,17.6,55,30.06,10.0,West,10.4,16.1,N/A,,Overcast,260,2013-02-16 04:55:00
11:15 PM,32.0,17.6,55,30.05,10.0,West,11.5,17.3,N/A,,Overcast,260,2013-02-16 05:15:00
11:35 PM,35.6,17.6,48,30.04,10.0,West,15.0,19.6,N/A,,Overcast,260,2013-02-16 05:35:00
11:55 PM,35.6,17.6,48,30.03,10.0,West,12.7,18.4,N/A,,Overcast,270,2013-02-16 05:55:00